Regional Weather Roundup
Issued by NWS

Home | Current Version | Previous Version | Text Only | Print | Product List | Glossary Off
Versions: 1 2 3 4 5 6 7 8 9 10 11 12 13 14 15 16 17 18 19 20 21 22 23 24 25 26 27 28 29 30 31 32 33 34 35 36 37 38 39 40 41 42 43 44 45 46 47 48 49 50

000
ASUS43 KIND 241259
RWRIN

WEATHER ROUNDUP FOR INDIANA
NATIONAL WEATHER SERVICE INDIANAPOLIS IN
900 AM EDT FRI MAR 24 2017

NOTE: "FAIR" INDICATES FEW OR NO CLOUDS BELOW 12,000 FEET WITH NO
SIGNIFICANT WEATHER AND/OR OBSTRUCTIONS TO VISIBILITY.

* - STATION DOES NOT REPORT WEATHER SUCH AS PRECIPITATION OR FOG.

+ - STATION NOT QUALITY CONTROLLED BY THE NATIONAL WEATHER SERVICE.
    USE DATA WITH CAUTION...ESPECIALLY DEWPOINT AND RELATIVE
    HUMIDITY OBSERVATIONS.

INZ001>003-010>013-019-020-241400-
NORTHWEST INDIANA

CITY           SKY/WX    TMP DP  RH WIND       PRES   REMARKS
GARY /AIRPORT/ PTSUNNY   57  43  58 S15G28    29.96S
MONTICELLO +   CLOUDY    55  46  70 S10       30.05S

$$

LMZ046-743>745-241400-
SOUTHERN LAKE MICHIGAN

STATION/POSITION TIME  TEMP    WIND        PRES    WAVE
                       AIR SEA DIR/SP/G            HT
                 (UTC) (F)     (DEG/KT/KT) (MB)    (FT)
BURNS HARBOR     1240   55     190/ 22/ 28 1014.6S
MICHIGAN CITY    1230   55     180/ 20/ 23   N/A

$$

INZ004-005-014>016-021>024-241400-
NORTH CENTRAL INDIANA

CITY           SKY/WX    TMP DP  RH WIND       PRES   REMARKS
ELKHART        MOSUNNY   50  41  71 S7        30.00F
GOSHEN         MOSUNNY   53  41  63 S14       30.02S
SOUTH BEND     CLOUDY    52  44  74 SW15      30.00F

$$

INZ006>009-017-018-025>027-241400-
NORTHEAST INDIANA

CITY           SKY/WX    TMP DP  RH WIND       PRES   REMARKS
ANGOLA *+      SUNNY     52  39  62 S10       30.02F
FORT WAYNE     PTSUNNY   52  44  74 S15       30.07F
KENDALLVILLE + CLOUDY    51  43  73 S13       30.04F

$$

INZ028-029-035-036-043>045-051>053-241400-
WEST CENTRAL INDIANA

CITY           SKY/WX    TMP DP  RH WIND       PRES   REMARKS
CRAWFORDSVL +  CLOUDY    56  49  79 S14       30.09R
GREENCASTLE +  MOSUNNY   59  48  67 SW8       30.11R
LAFAYETTE      CLOUDY    57  48  72 S6        30.07R
TERRE HAUTE    SUNNY     59  49  69 S13G30    30.10R

$$

INZ030>032-037>040-046>048-054>057-064-065-241400-
CENTRAL INDIANA

CITY           SKY/WX    TMP DP  RH WIND       PRES   REMARKS
ANDERSON       SUNNY     54  45  71 S12       30.12
CP ATTERBURY + MOSUNNY   55  45  67 S13G20    30.14R
COLUMBUS       SUNNY     54  46  76 S10       30.14R
INDIANAPOLIS   PTSUNNY   56  46  69 S8        30.12R
-EAGLE CREEK   MOSUNNY   57  46  66 S6        30.10R
KOKOMO +       CLOUDY    50  43  77 S12       30.10R
SHELBYVILLE    CLOUDY    56  44  64 S14       30.13R

$$

INZ033-034-041-042-049-050-058-059-241400-
EAST CENTRAL INDIANA

CITY           SKY/WX    TMP DP  RH WIND       PRES   REMARKS
MUNCIE         PTSUNNY   55  44  66 S14       30.12R
RICHMOND +     CLOUDY    48  41  76 S15       30.16R

$$

INZ060-061-067>069-081>083-085>088-241400-
SOUTHWEST INDIANA

CITY           SKY/WX    TMP DP  RH WIND       PRES   REMARKS
EVANSVILLE     SUNNY     61  52  72 S8        30.14R
HUNTINGBURG *+ SUNNY     59  51  75 S13       30.16R

$$

INZ062-063-066-070>080-084-089>092-241400-
SOUTH CENTRAL AND SOUTHEAST INDIANA

CITY           SKY/WX    TMP DP  RH WIND       PRES   REMARKS
BLOOMINGTON    SUNNY     61  49  64 S14       30.13R
MADISON *+     SUNNY     57  41  54 S18G24    30.20R
SEYMOUR +      MOSUNNY   57  46  67 S14       30.16R

$$




USA.gov is the U.S. government's official web portal to all federal, state and local government web resources and services.